"Pseudo-MPEC" for P1161Vm

Created 2020 Sep 17 20:07:33 UT using Find_Orb

Click here for an explanation of pseudo-MPECs

 
 Astrometry: 
     P1161Vm  C2020 09 14NxsAstrometry_/r,I83On_%.uGJIX8)$!A8.AO6s#u]O[,AH65.F51
     P1161Vm  C2020 09 14;w)=G,u=H3G'hB?w=Hg6Kredacted;cM!x4vGJ2Ue/8(1yWNGDu(F51
     P1161Vm  C2020 09 143qGd4pQ%un,Pm@M:j9I0H;lY:Jbn]clickD[/FEwpQkE/vherelOF51
     P1161Vm ^C2020 09 15.36586100 31 44.860-07 08 50.53   ~9H0q 21.87GVNEOCP568
     P1161Vm ^C2020 09 15.36775900 31 44.272-07 08 52.44   ~9H0q 21.98GVNEOCP568
     P1161Vm  C2020 09 15.36865 00 31 41.94 -07 09 01.9    ~9H1q 21.2 GVNEOCPG96
     P1161Vm  C2020 09 15.37374 00 31 40.32 -07 09 07.4    ~9H1q 22.3 GVNEOCPG96
     P1161Vm  C2020 09 16I,tb/*d%vxsF`iowhP`4P^^'`)I%sS(Y'Di1cH-;u.!eWRS-9A]wF52
     P1161Vm  C2020 09 16Y7bE;BHJwOI@:2BGM/()f46NM1e$j*p,)eNG3SxsVh;#oYgw-1R[F52
     P1161Vm  C2020 09 169=Gq-+g:4Rh5?ug[w`7?o4561RCw^%jac1)#yfor5F4UAUjs\8r+F52
     P1161Vm  C2020 09 16'aA8mdiRCY.explanationIuq4$OgmO!HJ1mCM)6y4=`U/TsS`q2F52
     P1161Vm ^C2020 09 17.38132100 21 49.295-07 40 03.00   ~9HI7 21.75GVNEOCP568
     P1161Vm ^C2020 09 17.38227000 21 49.001-07 40 03.85   ~9HI7 21.74GVNEOCP568
     P1161Vm ^C2020 09 17.38321900 21 48.710-07 40 04.70   ~9HI7 21.78GVNEOCP568

Station data:
(568) Mauna Kea  (N19.826116 W155.472200)  US/Hawaii.
(F51) Pan-STARRS 1, Haleakala  (N20.707235 W156.255910)  US/Hawaii.
   Observers N. Primak, A. Schultz, S. Watters, J. Thiel, T. Goggia. Measurer
   PS1 Science Consortium. 1.8-m Ritchey-Chrétien + CCD.
(F52) Pan-STARRS 2, Haleakala  (N20.707384 W156.255910)  US/Hawaii. 1.8-m
   Ritchey-Chrétien + CCD.
(G96) Mt. Lemmon Survey  (N32.442754 W110.788720)  US/Arizona.  Observers T.
   A. Pruyne, B. M. Africano, E. J. Christensen, G. A. Farneth, D. C. Fuls,
   A. R. Gibbs, A. D. Grauer, H. Gröller, J. A. Johnson, R. A. Kowalski, S.
   M. Larson, G. J. Leonard, D. Rankin, R. L. Seaman, F. C. Shelly. 1.5-m
   reflector + 10K CCD.

Orbital elements:  P1161Vm
   Perihelion 2020 May 13.067484 +/- 0.333 TT =  1:37:10 (JD 2458982.567484)
Epoch 2020 Sep 17.0 TT = JDT 2459109.5   Earth MOID: 0.0480   Ve: 0.0042
M 135.98795248 +/- 0.29             (J2000 ecliptic)          AutoNEOCP
n   1.07134055 +/- 0.000643         Peri.  176.04481 +/- 0.13
a   0.94591261 +/- 0.000379         Node    24.01732 +/- 0.13
e   0.3225549 +/- 0.00399           Incl.    3.21137 +/- 0.047
P   0.92/336.02d           H 24.4   G  0.15   U  7.8  
q 0.64080384 +/- 0.00401    Q 1.25102139 +/- 0.00332
From 14 observations 2020 Sept. 14-17; mean residual 0".21
Residuals in arcseconds: 
200914 F51  .41+  .15+    200915 G96  .05+  .47+    200916 F52  .22-  .07+    
200914 F51  .28-  .26-    200915 G96  .29-  .13-    200917 568  .01-  .12-    
200914 F51  .03+  .11-    200916 F52  .54+  .05+    200917 568  .04-  .11-    
200915 568  .07-  .09-    200916 F52  .22-  .23+    200917 568  .02-  .10-    
200915 568  .00   .13-    200916 F52  .22+  .09+    

Ephemerides (geocentric):
Date (UTC) HH   RA              Dec         delta   r     elong  mag " sig PA
---- -- -- --  -------------   -----------  ------ ------ -----  --- ---- ---
2020 09 17 20  00 19 36.324   -07 46 21.13  .19984 1.2017 169.0 21.9 .429 128
2020 09 17 21  00 19 24.224   -07 46 57.38  .19992 1.2018 169.0 21.9 .441 128
2020 09 17 22  00 19 12.130   -07 47 33.56  .20000 1.2019 169.1 21.9 .452 127
2020 09 17 23  00 19 00.043   -07 48 09.66  .20008 1.2020 169.2 21.9 .464 126
2020 09 18 00  00 18 47.963   -07 48 45.69  .20016 1.2021 169.2 21.9 .477 125
2020 09 18 01  00 18 35.890   -07 49 21.65  .20025 1.2022 169.3 21.9 .489 124
2020 09 18 02  00 18 23.825   -07 49 57.53  .20033 1.2023 169.3 21.9 .502 123
2020 09 18 03  00 18 11.766   -07 50 33.34  .20041 1.2024 169.4 21.9 .515 123
2020 09 18 04  00 17 59.715   -07 51 09.07  .20049 1.2025 169.4 21.9 .529 122
2020 09 18 05  00 17 47.670   -07 51 44.74  .20058 1.2026 169.5 21.9 .542 121
2020 09 18 06  00 17 35.633   -07 52 20.32  .20066 1.2027 169.6 21.9 .556 121
2020 09 18 07  00 17 23.604   -07 52 55.84  .20074 1.2028 169.6 21.9 .571 120
2020 09 18 08  00 17 11.582   -07 53 31.28  .20083 1.2029 169.7 21.9 .585 120
2020 09 18 09  00 16 59.567   -07 54 06.64  .20091 1.2030 169.7 21.9 .600 119
2020 09 18 10  00 16 47.559   -07 54 41.93  .20100 1.2031 169.8 21.9 .615 119
2020 09 18 11  00 16 35.560   -07 55 17.14  .20108 1.2032 169.8 21.9 .631 118
2020 09 18 12  00 16 23.567   -07 55 52.28  .20117 1.2033 169.9 21.9 .646 118
2020 09 18 13  00 16 11.583   -07 56 27.35  .20126 1.2034 169.9 21.9 .662 117
2020 09 18 14  00 15 59.606   -07 57 02.34  .20134 1.2035 170.0 21.9 .678 117
2020 09 18 15  00 15 47.637   -07 57 37.25  .20143 1.2036 170.0 21.9 .694 116
2020 09 18 16  00 15 35.675   -07 58 12.09  .20151 1.2037 170.1 21.9 .711 116
2020 09 18 17  00 15 23.722   -07 58 46.85  .20160 1.2038 170.1 21.9 .728 116
2020 09 18 18  00 15 11.776   -07 59 21.53  .20169 1.2039 170.2 21.9 .745 115
2020 09 18 19  00 14 59.839   -07 59 56.14  .20178 1.2040 170.2 21.9 .762 115
2020 09 18 20  00 14 47.909   -08 00 30.68  .20187 1.2041 170.3 21.9 .779 114
2020 09 18 21  00 14 35.987   -08 01 05.14  .20195 1.2042 170.3 21.9 .797 114
2020 09 18 22  00 14 24.074   -08 01 39.52  .20204 1.2043 170.4 21.9 .815 114
2020 09 18 23  00 14 12.168   -08 02 13.82  .20213 1.2044 170.4 21.9 .833 114
2020 09 19 00  00 14 00.271   -08 02 48.05  .20222 1.2045 170.5 21.9 .851 113
2020 09 19 01  00 13 48.382   -08 03 22.20  .20231 1.2046 170.5 21.9 .869 113
2020 09 19 02  00 13 36.501   -08 03 56.27  .20240 1.2047 170.6 21.9 .888 113
2020 09 19 03  00 13 24.629   -08 04 30.27  .20249 1.2048 170.6 21.9 .907 113
2020 09 19 04  00 13 12.765   -08 05 04.19  .20258 1.2049 170.6 21.9 .926 112
2020 09 19 05  00 13 00.910   -08 05 38.03  .20267 1.2050 170.7 21.9 .945 112
2020 09 19 06  00 12 49.063   -08 06 11.79  .20276 1.2051 170.7 21.9 .964 112
2020 09 19 07  00 12 37.224   -08 06 45.48  .20285 1.2052 170.8 21.9 .984 112
2020 09 19 08  00 12 25.394   -08 07 19.09  .20295 1.2053 170.8 21.9 1.00 111
2020 09 19 09  00 12 13.573   -08 07 52.62  .20304 1.2054 170.8 21.9 1.02 111
2020 09 19 10  00 12 01.761   -08 08 26.07  .20313 1.2055 170.9 21.9 1.04 111
2020 09 19 11  00 11 49.957   -08 08 59.45  .20322 1.2056 170.9 21.9 1.06 111
2020 09 19 12  00 11 38.162   -08 09 32.75  .20332 1.2057 171.0 21.9 1.08 111
2020 09 19 13  00 11 26.376   -08 10 05.96  .20341 1.2058 171.0 21.9 1.10 111
2020 09 19 14  00 11 14.598   -08 10 39.10  .20350 1.2059 171.0 21.9 1.12 111
2020 09 19 15  00 11 02.830   -08 11 12.16  .20360 1.2060 171.1 21.9 1.15 110
2020 09 19 16  00 10 51.070   -08 11 45.15  .20369 1.2061 171.1 21.9 1.17 110
2020 09 19 17  00 10 39.320   -08 12 18.05  .20379 1.2062 171.1 21.9 1.19 110
2020 09 19 18  00 10 27.579   -08 12 50.87  .20388 1.2063 171.2 21.9 1.21 110
2020 09 19 19  00 10 15.847   -08 13 23.62  .20398 1.2064 171.2 21.9 1.23 110